Tracking 34352 objects as of 8-Jun-2026
HD Live streaming from Space Station
objects crossing your sky now

COSMOS 839 DEB

Track COSMOS 839 DEB now!
10-day predictions


NORAD ID: 10622
Int'l Code: 1976-067AW
Perigee: 956.2 km
Apogee: 2,124.6 km
Inclination: 65.9 °
Period: 116.7 minutes
Semi major axis: 7911 km
RCS: 0.1409 m2 (medium)
Launch date: July 8, 1976
Source: Commonwealth of Independent States (former USSR) (CIS)
Launch site: PLESETSK MISSILE AND SPACE COMPLEX (PKMTR)

Note: This is SATELLITE DEBRIS
Your satellite tracking list
Your tracking list is empty




NASA's NSSDC Master Catalog

Two Line Element Set (TLE):
1 10622U 76067AW  26158.99397794 -.00000058  00000-0 -12805-4 0  9991
2 10622  65.9056 255.9509 0738409 130.8069  36.8825 12.33734648247777
Source of the keplerian elements: AFSPC